Location: Fauquembergues
(50.6005°N, 2.0987°E)
Time: 11:02:07
(UTC+00:00)

Meteor 1-19 Rocket - Pass Details

Date: 25 October 2020
Orbit: 809 x 926 km, 81.2° (Epoch: 28 November)

Event Time Altitude Azimuth Distance (km) Brightness Sun altitude
Exits shadow 01:05:09 12° 14° (NNE) 2,478 7.1 -47.5°
Drops below altitude 10° 01:05:34 10° 14° (NNE) 2,640 7.2 -47.4°
Sets 01:08:04 0° 14° (NNE) 3,587 8.1 -47.2°
